| time (UTC) | temp F | wind direction | speed knots | gust knots | rain 1hr in | rain 24hr in | rain mn in | humidity % | barometer mb |
| 20260504030512 | 46 | 190 | 0.0 | 0.0 | 0.00 | 0.09 | 0.09 | 61 | 1012.7 |
| 20260504030030 | 46 | 190 | 0.0 | 0.0 | 0.00 | 0.09 | 0.09 | 60 | 1012.7 |
| 20260504025512 | 46 | 190 | 0.0 | 0.9 | 0.00 | 0.09 | 0.09 | 60 | 1012.7 |
| 20260504025011 | 46 | 190 | 0.0 | 0.9 | 0.00 | 0.09 | 0.09 | 60 | 1012.7 |
| 20260504024526 | 46 | 190 | 0.0 | 0.0 | 0.00 | 0.09 | 0.09 | 60 | 1012.8 |
| 20260504024008 | 47 | 190 | 0.0 | 0.0 | 0.00 | 0.09 | 0.09 | 59 | 1012.8 |
| 20260504023507 | 48 | 190 | 0.0 | 0.0 | 0.00 | 0.09 | 0.09 | 57 | 1012.9 |
| 20260504023028 | 48 | 190 | 0.0 | 0.9 | 0.00 | 0.09 | 0.09 | 56 | 1012.9 |
| 20260504022508 | 48 | 190 | 0.0 | 1.7 | 0.00 | 0.09 | 0.09 | 56 | 1012.9 |
| 20260504022011 | 48 | 190 | 0.0 | 1.7 | 0.00 | 0.09 | 0.09 | 55 | 1012.9 |
| 20260504021527 | 49 | 190 | 0.0 | 0.9 | 0.00 | 0.09 | 0.09 | 55 | 1012.8 |
| 20260504021007 | 49 | 190 | 0.0 | 1.7 | 0.00 | 0.09 | 0.09 | 53 | 1012.8 |
| 20260504020508 | 49 | 190 | 0.9 | 1.7 | 0.00 | 0.09 | 0.09 | 54 | 1012.8 |
| 20260504020028 | 50 | 188 | 0.9 | 2.6 | 0.00 | 0.09 | 0.09 | 53 | 1012.8 |
| 20260504015507 | 50 | 178 | 0.9 | 2.6 | 0.00 | 0.09 | 0.09 | 52 | 1012.9 |
| 20260504015009 | 50 | 192 | 0.9 | 1.7 | 0.00 | 0.09 | 0.09 | 51 | 1012.9 |
| 20260504014537 | 51 | 195 | 0.0 | 1.7 | 0.00 | 0.09 | 0.09 | 50 | 1012.9 |
| 20260504014010 | 51 | 198 | 0.0 | 1.7 | 0.00 | 0.09 | 0.09 | 49 | 1012.9 |
| 20260504013510 | 51 | 198 | 0.0 | 1.7 | 0.00 | 0.09 | 0.09 | 48 | 1012.8 |
| 20260504013029 | 52 | 211 | 0.0 | 2.6 | 0.00 | 0.09 | 0.09 | 48 | 1012.8 |
| 20260504012507 | 52 | 211 | 0.9 | 4.3 | 0.00 | 0.09 | 0.09 | 47 | 1012.8 |
| 20260504012007 | 52 | 209 | 0.9 | 4.3 | 0.00 | 0.09 | 0.09 | 45 | 1012.7 |
| 20260504011529 | 53 | 239 | 0.0 | 3.5 | 0.00 | 0.09 | 0.09 | 45 | 1012.7 |
| 20260504011007 | 53 | 216 | 0.9 | 4.3 | 0.00 | 0.09 | 0.09 | 45 | 1012.8 |
| 20260504010509 | 53 | 217 | 0.9 | 4.3 | 0.00 | 0.09 | 0.09 | 45 | 1012.8 |
| 20260504010028 | 53 | 202 | 1.7 | 4.3 | 0.00 | 0.09 | 0.09 | 45 | 1012.8 |
| 20260504005508 | 53 | 210 | 1.7 | 5.2 | 0.00 | 0.09 | 0.09 | 45 | 1012.8 |
| 20260504005011 | 53 | 166 | 1.7 | 5.2 | 0.00 | 0.09 | 0.09 | 44 | 1012.9 |
| 20260504004528 | 54 | 267 | 0.0 | 3.5 | 0.00 | 0.09 | 0.09 | 44 | 1012.8 |
| 20260504004008 | 54 | 213 | 0.0 | 6.1 | 0.00 | 0.09 | 0.09 | 43 | 1012.7 |
| 20260504003509 | 54 | 244 | 0.9 | 6.1 | 0.00 | 0.09 | 0.09 | 43 | 1012.6 |
| 20260504003033 | 54 | 255 | 0.9 | 6.1 | 0.00 | 0.09 | 0.09 | 42 | 1012.6 |
| 20260504002510 | 54 | 223 | 0.9 | 6.1 | 0.00 | 0.09 | 0.09 | 42 | 1012.7 |
| 20260504002014 | 55 | 262 | 0.9 | 6.1 | 0.00 | 0.09 | 0.09 | 42 | 1012.8 |
| 20260504001536 | 55 | 232 | 1.7 | 7.0 | 0.00 | 0.09 | 0.09 | 42 | 1012.8 |
| 20260504001007 | 55 | 226 | 0.9 | 7.0 | 0.00 | 0.09 | 0.09 | 42 | 1012.6 |
| 20260504000507 | 55 | 193 | 2.6 | 7.8 | 0.00 | 0.09 | 0.09 | 41 | 1012.6 |
| 20260504000031 | 55 | 171 | 2.6 | 7.8 | 0.00 | 0.09 | 0.09 | 41 | 1012.6 |
| 20260503235508 | 55 | 258 | 0.9 | 7.8 | 0.00 | 0.09 | 0.09 | 40 | 1012.7 |
| 20260503235008 | 55 | 247 | 2.6 | 7.8 | 0.00 | 0.09 | 0.09 | 41 | 1012.5 |
| 20260503234526 | 55 | 232 | 2.6 | 8.7 | 0.00 | 0.09 | 0.09 | 40 | 1012.5 |
| 20260503234012 | 56 | 227 | 3.5 | 10.4 | 0.00 | 0.09 | 0.09 | 40 | 1012.5 |
| 20260503233508 | 56 | 210 | 4.3 | 10.4 | 0.00 | 0.09 | 0.09 | 40 | 1012.4 |
| 20260503233028 | 56 | 218 | 2.6 | 7.0 | 0.00 | 0.09 | 0.09 | 41 | 1012.5 |
| 20260503232510 | 56 | 223 | 0.9 | 6.1 | 0.00 | 0.09 | 0.09 | 40 | 1012.5 |
| 20260503232011 | 56 | 255 | 2.6 | 7.8 | 0.00 | 0.09 | 0.09 | 39 | 1012.5 |
| 20260503231530 | 57 | 250 | 2.6 | 7.8 | 0.00 | 0.09 | 0.09 | 38 | 1012.5 |
| 20260503231010 | 57 | 245 | 3.5 | 7.8 | 0.00 | 0.09 | 0.09 | 38 | 1012.6 |
| 20260503230510 | 57 | 198 | 2.6 | 12.2 | 0.00 | 0.09 | 0.09 | 38 | 1012.5 |
| 20260503230028 | 57 | 277 | 2.6 | 11.3 | 0.00 | 0.09 | 0.09 | 38 | 1012.5 |
| 20260503225510 | 57 | 229 | 5.2 | 10.4 | 0.00 | 0.09 | 0.09 | 38 | 1012.5 |
| 20260503225009 | 57 | 277 | 4.3 | 10.4 | 0.00 | 0.09 | 0.09 | 38 | 1012.5 |
| 20260503224527 | 57 | 251 | 5.2 | 10.4 | 0.00 | 0.09 | 0.09 | 37 | 1012.6 |
| 20260503224008 | 57 | 250 | 3.5 | 14.8 | 0.00 | 0.09 | 0.09 | 37 | 1012.6 |
| 20260503223512 | 57 | 215 | 4.3 | 14.8 | 0.00 | 0.09 | 0.09 | 36 | 1012.6 |
| 20260503223026 | 58 | 336 | 4.3 | 12.2 | 0.00 | 0.09 | 0.09 | 36 | 1012.6 |
| 20260503222508 | 58 | 263 | 2.6 | 8.7 | 0.00 | 0.09 | 0.09 | 37 | 1012.7 |
| 20260503222007 | 57 | 263 | 3.5 | 11.3 | 0.00 | 0.09 | 0.09 | 36 | 1012.6 |
| 20260503221527 | 57 | 251 | 4.3 | 11.3 | 0.00 | 0.09 | 0.09 | 36 | 1012.8 |
| 20260503221012 | 57 | 260 | 3.5 | 9.6 | 0.00 | 0.09 | 0.09 | 36 | 1012.7 |
| 20260503220509 | 58 | 193 | 3.5 | 10.4 | 0.00 | 0.09 | 0.09 | 35 | 1012.8 |
| 20260503220028 | 58 | 241 | 2.6 | 12.2 | 0.00 | 0.09 | 0.09 | 36 | 1012.7 |
| 20260503215510 | 58 | 281 | 3.5 | 12.2 | 0.00 | 0.09 | 0.09 | 38 | 1012.6 |
| 20260503215013 | 58 | 204 | 5.2 | 8.7 | 0.00 | 0.09 | 0.09 | 37 | 1012.5 |
| 20260503214528 | 58 | 165 | 2.6 | 9.6 | 0.00 | 0.09 | 0.09 | 37 | 1012.5 |
| 20260503214009 | 58 | 306 | 2.6 | 15.6 | 0.00 | 0.09 | 0.09 | 36 | 1012.6 |
| 20260503213510 | 59 | 227 | 7.0 | 15.6 | 0.00 | 0.09 | 0.09 | 34 | 1012.5 |
| 20260503213026 | 58 | 271 | 6.1 | 12.2 | 0.00 | 0.09 | 0.09 | 36 | 1012.5 |
| 20260503212510 | 57 | 213 | 3.5 | 8.7 | 0.00 | 0.09 | 0.09 | 37 | 1012.5 |
| 20260503212011 | 57 | 234 | 3.5 | 12.2 | 0.00 | 0.09 | 0.09 | 38 | 1012.5 |
| 20260503211529 | 57 | 254 | 3.5 | 12.2 | 0.00 | 0.09 | 0.09 | 36 | 1012.5 |
| 20260503211007 | 58 | 322 | 4.3 | 13.0 | 0.01 | 0.09 | 0.09 | 35 | 1012.5 |
| 20260503210507 | 57 | 193 | 4.3 | 13.0 | 0.01 | 0.09 | 0.09 | 37 | 1012.6 |
| 20260503210033 | 58 | 207 | 4.3 | 11.3 | 0.01 | 0.09 | 0.09 | 36 | 1012.7 |
| 20260503205509 | 57 | 229 | 2.6 | 9.6 | 0.01 | 0.09 | 0.09 | 39 | 1012.9 |
| 20260503205007 | 57 | 180 | 4.3 | 13.0 | 0.01 | 0.09 | 0.09 | 37 | 1012.9 |
| 20260503204529 | 57 | 259 | 7.0 | 13.9 | 0.01 | 0.09 | 0.09 | 36 | 1012.9 |
| 20260503204017 | 57 | 254 | 5.2 | 13.9 | 0.01 | 0.09 | 0.09 | 38 | 1013.0 |
| 20260503203507 | 57 | 360 | 3.5 | 10.4 | 0.01 | 0.09 | 0.09 | 39 | 1013.0 |
| 20260503203026 | 58 | 277 | 6.1 | 11.3 | 0.01 | 0.09 | 0.09 | 35 | 1013.0 |
| 20260503202511 | 58 | 256 | 6.1 | 11.3 | 0.01 | 0.09 | 0.09 | 36 | 1013.2 |
| 20260503202013 | 57 | 214 | 5.2 | 12.2 | 0.01 | 0.09 | 0.09 | 36 | 1013.2 |
| 20260503201528 | 57 | 292 | 4.3 | 12.2 | 0.01 | 0.09 | 0.09 | 36 | 1013.2 |
| 20260503201007 | 57 | 288 | 7.0 | 12.2 | 0.00 | 0.08 | 0.08 | 35 | 1013.3 |
| 20260503200510 | 58 | 248 | 5.2 | 12.2 | 0.00 | 0.08 | 0.08 | 35 | 1013.3 |
| 20260503200007 | 58 | 302 | 7.0 | 13.9 | 0.00 | 0.08 | 0.08 | 35 | 1013.2 |
| 20260503195503 | 58 | 244 | 5.2 | 13.9 | 0.00 | 0.08 | 0.08 | 35 | 1013.3 |
| 20260503195003 | 57 | 188 | 4.3 | 10.4 | 0.00 | 0.08 | 0.08 | 37 | 1013.4 |
| 20260503194508 | 57 | 204 | 3.5 | 15.6 | 0.00 | 0.08 | 0.08 | 35 | 1013.5 |
| 20260503194003 | 57 | 300 | 9.6 | 15.6 | 0.00 | 0.08 | 0.08 | 36 | 1013.6 |
| 20260503193503 | 58 | 207 | 3.5 | 13.0 | 0.00 | 0.08 | 0.08 | 38 | 1013.8 |
| 20260503193007 | 59 | 322 | 4.3 | 13.0 | 0.00 | 0.08 | 0.08 | 40 | 1013.8 |
| 20260503192503 | 57 | 188 | 4.3 | 13.0 | 0.00 | 0.08 | 0.08 | 40 | 1013.8 |
| 20260503192003 | 56 | 219 | 3.5 | 12.2 | 0.00 | 0.08 | 0.08 | 39 | 1013.8 |
| 20260503191525 | 56 | 210 | 5.2 | 11.3 | 0.00 | 0.08 | 0.08 | 41 | 1013.9 |
| 20260503191004 | 55 | 228 | 2.6 | 11.3 | 0.00 | 0.08 | 0.08 | 43 | 1014.0 |
| 20260503190504 | 55 | 313 | 5.2 | 15.6 | 0.00 | 0.08 | 0.08 | 38 | 1014.0 |
| 20260503190008 | 56 | 202 | 8.7 | 15.6 | 0.00 | 0.08 | 0.08 | 40 | 1014.0 |
| 20260503185503 | 55 | 245 | 7.0 | 12.2 | 0.00 | 0.08 | 0.08 | 38 | 1014.2 |
| 20260503185004 | 55 | 259 | 5.2 | 10.4 | 0.00 | 0.08 | 0.08 | 41 | 1014.2 |
| 20260503184506 | 55 | 199 | 5.2 | 12.2 | 0.00 | 0.08 | 0.08 | 39 | 1014.3 |
| 20260503184004 | 56 | 284 | 5.2 | 16.5 | 0.00 | 0.08 | 0.08 | 37 | 1014.3 |
| 20260503183503 | 56 | 307 | 7.0 | 16.5 | 0.00 | 0.08 | 0.08 | 41 | 1014.3 |
| 20260503183009 | 55 | 242 | 6.1 | 12.2 | 0.00 | 0.08 | 0.08 | 39 | 1014.4 |
| 20260503182505 | 55 | 225 | 2.6 | 12.2 | 0.00 | 0.08 | 0.08 | 39 | 1014.5 |
| 20260503182003 | 55 | 200 | 4.3 | 9.6 | 0.00 | 0.08 | 0.08 | 44 | 1014.5 |
| 20260503181508 | 55 | 234 | 3.5 | 13.0 | 0.00 | 0.08 | 0.08 | 40 | 1014.5 |
| 20260503181005 | 55 | 271 | 3.5 | 13.0 | 0.00 | 0.08 | 0.08 | 40 | 1014.5 |
| 20260503180507 | 55 | 296 | 3.5 | 11.3 | 0.00 | 0.08 | 0.08 | 39 | 1014.6 |
| 20260503180010 | 55 | 313 | 4.3 | 12.2 | 0.00 | 0.08 | 0.08 | 39 | 1014.6 |
| 20260503175504 | 55 | 256 | 7.0 | 14.8 | 0.00 | 0.08 | 0.08 | 41 | 1014.8 |
| 20260503175004 | 55 | 223 | 7.0 | 14.8 | 0.00 | 0.08 | 0.08 | 42 | 1014.8 |
| 20260503174507 | 55 | 229 | 1.7 | 12.2 | 0.00 | 0.08 | 0.08 | 45 | 1014.9 |
| 20260503174006 | 54 | 271 | 2.6 | 14.8 | 0.00 | 0.08 | 0.08 | 42 | 1015.0 |
| 20260503173503 | 54 | 268 | 5.2 | 14.8 | 0.00 | 0.08 | 0.08 | 41 | 1015.2 |
| 20260503173008 | 54 | 283 | 7.0 | 13.9 | 0.00 | 0.08 | 0.08 | 38 | 1015.0 |
| 20260503172505 | 54 | 5 | 6.1 | 12.2 | 0.00 | 0.08 | 0.08 | 39 | 1015.1 |
| 20260503172003 | 53 | 290 | 1.7 | 12.2 | 0.01 | 0.08 | 0.08 | 41 | 1015.3 |
| 20260503171508 | 53 | 162 | 6.1 | 15.6 | 0.01 | 0.08 | 0.08 | 41 | 1015.4 |
| 20260503171003 | 53 | 170 | 5.2 | 15.6 | 0.01 | 0.08 | 0.08 | 40 | 1015.4 |
| 20260503170504 | 53 | 284 | 5.2 | 13.0 | 0.01 | 0.08 | 0.08 | 41 | 1015.5 |
| 20260503150503 | 49 | 209 | 4.3 | 11.3 | 0.01 | 0.07 | 0.07 | 44 | 1016.4 |
| 20260503131005 | 42 | 216 | 1.7 | 7.0 | 0.03 | 0.04 | 0.04 | 74 | 1017.0 |
| 20260503110504 | 29 | 343 | 0.0 | 0.0 | 0.00 | 0.00 | 0.00 | 94 | 1016.0 |
| 20260503090504 | 29 | 343 | 0.0 | 0.0 | 0.00 | 0.00 | 0.00 | 93 | 1015.4 |
| 20260503081523 | 30 | 343 | 0.0 | 0.0 | 0.00 | 0.00 | 0.00 | 92 | 1015.5 |
| 20260503081007 | 31 | 343 | 0.0 | 0.0 | 0.00 | 0.00 | 0.00 | 92 | 1015.4 |
| 20260503080507 | 31 | 343 | 0.0 | 0.0 | 0.00 | 0.00 | 0.00 | 92 | 1015.4 |
| 20260503072505 | 32 | 343 | 0.0 | 0.0 | 0.00 | 0.00 | 0.00 | 92 | 1015.2 |
| 20260503072013 | 32 | 343 | 0.0 | 0.0 | 0.00 | 0.00 | 0.00 | 92 | 1015.3 |
| 20260503071518 | 32 | 343 | 0.0 | 0.0 | 0.00 | 0.00 | 0.00 | 92 | 1015.2 |
| 20260503071005 | 32 | 343 | 0.0 | 0.0 | 0.00 | 0.00 | 0.00 | 92 | 1015.3 |
| 20260503070507 | 32 | 343 | 0.0 | 0.0 | 0.00 | 0.00 | 0.00 | 92 | 1015.3 |
| 20260503055009 | 33 | 343 | 0.0 | 0.0 | 0.00 | 0.00 | 0.00 | 91 | 1015.4 |
| 20260503054520 | 33 | 343 | 0.0 | 0.0 | 0.00 | 0.00 | 0.00 | 91 | 1015.4 |
| 20260503054006 | 33 | 343 | 0.0 | 0.0 | 0.00 | 0.00 | 0.00 | 91 | 1015.5 |
| 20260503053508 | 33 | 343 | 0.0 | 0.0 | 0.00 | 0.00 | 0.00 | 91 | 1015.5 |
| 20260503053023 | 33 | 343 | 0.0 | 0.0 | 0.00 | 0.00 | 0.00 | 91 | 1015.6 |
| 20260503052002 | 33 | 343 | 0.0 | 0.0 | 0.00 | 0.00 | 0.00 | 90 | 1015.6 |
| 20260503051511 | 33 | 343 | 0.0 | 0.0 | 0.00 | 0.00 | 0.00 | 90 | 1015.6 |
| 20260503045004 | 33 | 343 | 0.0 | 0.0 | 0.00 | 0.00 | 0.00 | 90 | 1015.7 |
| 20260503044508 | 33 | 343 | 0.0 | 0.0 | 0.00 | 0.00 | 0.00 | 90 | 1015.7 |
| 20260503044003 | 33 | 343 | 0.0 | 0.0 | 0.00 | 0.00 | 0.00 | 90 | 1015.7 |
| 20260503043502 | 33 | 343 | 0.0 | 0.0 | 0.00 | 0.00 | 0.00 | 90 | 1015.7 |
| 20260503043029 | 33 | 343 | 0.0 | 0.0 | 0.00 | 0.00 | 0.00 | 89 | 1015.8 |
| 20260503042506 | 33 | 343 | 0.0 | 0.0 | 0.00 | 0.00 | 0.00 | 89 | 1015.8 |
| 20260503042003 | 33 | 343 | 0.0 | 0.0 | 0.00 | 0.00 | 0.00 | 88 | 1015.8 |
| 20260503041507 | 33 | 343 | 0.0 | 0.0 | 0.00 | 0.00 | 0.00 | 88 | 1015.8 |
| 20260503041007 | 33 | 343 | 0.0 | 0.0 | 0.00 | 0.00 | 0.00 | 88 | 1015.9 |
| 20260503040504 | 33 | 343 | 0.0 | 0.0 | 0.00 | 0.00 | 0.00 | 88 | 1015.8 |
| 20260503040008 | 33 | 343 | 0.0 | 0.0 | 0.00 | 0.00 | 0.00 | 88 | 1015.8 |
| 20260503035003 | 33 | 343 | 0.0 | 0.0 | 0.00 | 0.00 | 0.00 | 87 | 1015.9 |
| 20260503034003 | 34 | 343 | 0.0 | 0.0 | 0.00 | 0.00 | 0.00 | 86 | 1015.8 |
| 20260503033504 | 34 | 343 | 0.0 | 0.0 | 0.00 | 0.00 | 0.00 | 86 | 1015.8 |
| 20260503033016 | 34 | 343 | 0.0 | 0.0 | 0.00 | 0.00 | 0.00 | 85 | 1015.8 |
| 20260503032504 | 34 | 343 | 0.0 | 0.0 | 0.00 | 0.00 | 0.00 | 85 | 1015.8 |
| 20260503032002 | 35 | 343 | 0.0 | 0.0 | 0.00 | 0.00 | 0.00 | 84 | 1015.8 |
| 20260503031508 | 35 | 343 | 0.0 | 0.0 | 0.00 | 0.00 | 0.00 | 84 | 1015.8 |